Regional Weather Roundup
Issued by NWS

Home | Current Version | Previous Version | Text Only | Print | Product List | Glossary Off
Versions: 1 2 3 4 5 6 7 8 9 10 11 12 13 14 15 16 17 18 19 20 21 22 23 24 25 26 27 28 29 30 31 32 33 34 35 36 37 38 39 40 41 42 43 44 45 46 47 48 49 50

000
ASUS43 KBIS 161602
RWRND

NORTH DAKOTA REGIONAL WEATHER ROUNDUP
NATIONAL WEATHER SERVICE BISMARCK ND
1000 AM CST MON JAN 16 2017

NOTE: "FAIR" INDICATES FEW OR NO CLOUDS BELOW 12,000 FEET WITH NO
SIGNIFICANT WEATHER AND/OR OBSTRUCTIONS TO VISIBILITY.


NDZ001>003-009>011-017-161700-
NORTHWEST NORTH DAKOTA

CITY           SKY/WX    TMP DP  RH WIND       PRES   REMARKS
WILLISTON      FAIR       5   1  83 S5        30.13R WCI  -4
MINOT          FAIR      19  13  77 W13       30.04R WCI   6
$$

NDZ018>021-031>035-040>046-161700-
SOUTHWEST NORTH DAKOTA

CITY           SKY/WX    TMP DP  RH WIND       PRES   REMARKS
BISMARCK       FAIR       1  -6  72 CALM      30.09S
DICKINSON      FAIR      13   7  77 W15       30.06R WCI  -3
GARRISON         N/A     13   7  77 W12       30.06S WCI  -1
HETTINGER ARPT CLOUDY    13   5  70 NW9       30.08F WCI   1
$$

NDZ004>008-012>016-024-026-027-054-161700-
NORTHEAST NORTH DAKOTA

CITY           SKY/WX    TMP DP  RH WIND       PRES   REMARKS
GRAND FORKS    CLOUDY     9   2  73 SW9       30.06F WCI  -4
GRND FRKS AFB  CLOUDY    14   4  63 SW6       30.06S WCI   5
DEVILS LAKE    FAIR       9   4  80 SW8       30.04R WCI  -3
$$

NDZ022-023-025-028>030-036>039-047>053-161700-
SOUTHEAST NORTH DAKOTA

CITY           SKY/WX    TMP DP  RH WIND       PRES   REMARKS
FARGO          CLOUDY    10   8  92 SW6       30.09F WCI   0
JAMESTOWN      FAIR      11   4  73 W10       30.05S WCI  -3
$$





USA.gov is the U.S. government's official web portal to all federal, state and local government web resources and services.